Location: Street
(51.1247°N, 2.7429°W)
Time: 05:02:45
(UTC+00:00)

SR - Pass Details

Date: 03 December 2020
Orbit: 575 x 880 km, 66.7° (Epoch: 26 January)

Event Time Altitude Azimuth Distance (km) Brightness Sun altitude
Rises 23:56:10 0° 321° (NW) 3,091 - -61.0°
Reaches altitude 10° 23:58:52 10° 336° (NNW) 2,227 - -61.0°
Maximum altitude 00:03:00 24° 30° (NNE) 1,545 - -61.0°
Drops below altitude 10° 00:07:24 10° 84° (E) 2,384 - -61.0°
Sets 00:10:23 0° 98° (E) 3,363 - -60.9°
